EW7586 Weather Reports


time (UTC)temp
F
wind
direction
speed
knots
gust
knots
rain 1hr
in
rain 24hr
in
rain mn
in
humidity
%
barometer
mb
20211017165925 52 299 0.0 0.0 0.00 0.00 0.00 39 1020.7
20211017165425 52 314 0.0 1.7 0.00 0.00 0.00 40 1020.7
20211017164925 52 310 0.0 1.7 0.00 0.00 0.00 41 1020.9
20211017164426 52 302 0.0 2.6 0.00 0.00 0.00 40 1020.9
20211017163924 52 298 0.0 2.6 0.00 0.00 0.00 40 1021.0
20211017163425 51 76 1.7 1.7 0.00 0.00 0.00 41 1021.0
20211017162924 50 207 0.9 1.7 0.00 0.00 0.00 41 1021.1
20211017162423 50 207 0.9 1.7 0.00 0.00 0.00 41 1020.9
20211017161922 50 168 0.9 1.7 0.00 0.00 0.00 41 1021.0
20211017161421 0 0.0 0.0 0.00 0.00 0.00 1021.0
20211017160922 0 0.0 0.0 0.00 0.00 0.00 1020.9
20211017160419 48 78 0.0 0.0 0.00 0.00 0.00 42 1020.9
20211017155918 48 78 0.0 1.7 0.00 0.00 0.00 42 1021.1
20211017155418 48 76 0.0 1.7 0.00 0.00 0.00 43 1021.1
20211017154917 48 78 0.0 1.7 0.00 0.00 0.00 43 1021.3
20211017154420 47 110 0.0 0.0 0.00 0.00 0.00 43 1021.3
20211017153917 47 110 0.0 0.0 0.00 0.00 0.00 43 1021.4
20211017153420 47 110 0.0 0.0 0.00 0.00 0.00 44 1021.3
20211017152917 47 110 0.0 0.9 0.00 0.00 0.00 43 1021.3
20211017152417 48 110 0.0 2.6 0.00 0.00 0.00 43 1021.3
20211017151918 48 110 1.7 2.6 0.00 0.00 0.00 44 1021.3
20211017151417 48 110 0.9 1.7 0.00 0.00 0.00 43 1021.4
20211017150919 48 110 0.0 0.0 0.00 0.00 0.00 42 1021.3
20211017150416 48 110 0.0 0.9 0.00 0.00 0.00 42 1021.2
20211017145917 48 110 0.0 0.9 0.00 0.00 0.00 42 1021.3
20211017145417 47 110 0.0 2.6 0.00 0.00 0.00 43 1021.4
20211017144916 47 117 0.0 2.6 0.00 0.00 0.00 43 1021.4
20211017144416 47 123 0.0 0.0 0.00 0.00 0.00 43 1021.3
20211017143915 47 96 0.0 0.0 0.00 0.00 0.00 43 1021.3
20211017143414 47 123 0.0 0.0 0.00 0.00 0.00 44 1021.4
20211017142914 47 123 0.0 0.0 0.00 0.00 0.00 44 1021.3
20211017142414 46 116 0.0 0.0 0.00 0.00 0.00 44 1021.4
20211017141915 46 116 0.0 0.0 0.00 0.00 0.00 44 1021.6
20211017141415 46 116 0.0 0.0 0.00 0.00 0.00 44 1021.4
20211017140915 46 116 0.0 0.0 0.00 0.00 0.00 44 1021.2
20211017140414 46 116 0.0 0.0 0.00 0.00 0.00 45 1021.3
20211017135915 46 116 0.0 1.7 0.00 0.00 0.00 45 1021.3
20211017135415 46 116 0.0 1.7 0.00 0.00 0.00 45 1021.3
20211017134910 47 116 0.0 0.9 0.00 0.00 0.00 45 1021.3
20211017134413 47 116 0.0 1.7 0.00 0.00 0.00 44 1021.3
20211017133910 47 116 0.9 1.7 0.00 0.00 0.00 44 1021.4
20211017133413 47 116 0.0 1.7 0.00 0.00 0.00 44 1021.4
20211017132914 48 116 0.0 0.0 0.00 0.00 0.00 42 1021.4
20211017132411 48 116 0.0 0.0 0.00 0.00 0.00 42 1021.4
20211017131910 49 116 0.0 0.0 0.00 0.00 0.00 42 1021.6
20211017131410 49 116 0.0 1.7 0.00 0.00 0.00 41 1021.4
20211017130909 49 116 0.0 2.6 0.00 0.00 0.00 41 1021.6
20211017130408 49 116 1.7 2.6 0.00 0.00 0.00 41 1021.8
20211017125909 49 116 1.7 3.5 0.00 0.00 0.00 41 1021.7
20211017125408 49 116 1.7 3.5 0.00 0.00 0.00 41 1021.7
20211017124908 49 106 1.7 2.6 0.00 0.00 0.00 42 1021.8
20211017124409 48 106 1.7 2.6 0.00 0.00 0.00 42 1021.9
20211017123910 47 94 1.7 1.7 0.00 0.00 0.00 43 1022.0
20211017123408 0 0.0 0.0 0.00 0.00 0.00 1022.0
20211017122908 48 94 0.0 0.0 0.00 0.00 0.00 43 1022.0
20211017122406 48 94 0.0 0.0 0.00 0.00 0.00 43 1021.9
20211017121907 48 94 0.0 0.0 0.00 0.00 0.00 43 1022.0
20211017121406 49 116 1.7 2.6 0.00 0.00 0.00 43 1022.0
20211017120905 49 116 1.7 2.6 0.00 0.00 0.00 43 1022.0
20211017120405 48 96 1.7 2.6 0.00 0.00 0.00 43 1022.0
20211017115903 48 114 1.7 2.6 0.00 0.00 0.00 43 1022.0
20211017115404 48 107 0.9 2.6 0.00 0.00 0.00 44 1022.0
20211017114903 48 97 0.9 2.6 0.00 0.00 0.00 44 1022.0
20211017114403 48 89 0.0 0.9 0.00 0.00 0.00 43 1021.9
20211017113903 49 89 0.0 2.6 0.00 0.00 0.00 43 1021.9
20211017113402 49 89 0.0 4.3 0.00 0.00 0.00 43 1021.9
20211017112902 48 96 1.7 4.3 0.00 0.00 0.00 43 1021.9
20211017112403 48 102 1.7 3.5 0.00 0.00 0.00 43 1022.0
20211017111903 48 117 0.9 1.7 0.00 0.00 0.00 43 1022.0
20211017111401 48 117 0.0 2.6 0.00 0.00 0.00 44 1022.0
20211017110901 48 113 0.9 2.6 0.00 0.00 0.00 44 1022.1
20211017110401 48 113 1.7 2.6 0.00 0.00 0.00 44 1022.3
20211017105903 49 82 1.7 3.5 0.00 0.00 0.00 44 1022.3
20211017105400 49 114 1.7 3.5 0.00 0.00 0.00 42 1022.3
20211017104903 49 114 1.7 3.5 0.00 0.00 0.00 42 1022.3
20211017104401 50 114 1.7 3.5 0.00 0.00 0.00 42 1022.1
20211017103903 50 116 1.7 2.6 0.00 0.00 0.00 40 1022.1
20211017103400 51 83 1.7 2.6 0.00 0.00 0.00 40 1022.0
20211017102901 51 100 0.0 1.7 0.00 0.00 0.00 41 1022.1
20211017102401 51 78 0.9 2.6 0.00 0.00 0.00 40 1022.1
20211017101901 50 78 1.7 2.6 0.00 0.00 0.00 40 1022.1
20211017101401 50 116 0.9 3.5 0.00 0.00 0.00 41 1022.3
20211017100900 50 107 1.7 3.5 0.00 0.00 0.00 41 1022.4
20211017100401 50 109 1.7 2.6 0.00 0.00 0.00 41 1022.3
20211017095901 50 104 1.7 3.5 0.00 0.00 0.00 41 1022.4
20211017095401 50 100 1.7 3.5 0.00 0.00 0.00 41 1022.4
20211017094859 50 109 1.7 2.6 0.00 0.00 0.00 41 1022.4
20211017094401 49 111 1.7 3.5 0.00 0.00 0.00 41 1022.5
20211017093900 49 111 1.7 3.5 0.00 0.00 0.00 42 1022.6
20211017093400 49 117 1.7 2.6 0.00 0.00 0.00 42 1022.6
20211017092859 50 117 0.0 1.7 0.00 0.00 0.00 42 1022.7
20211017092400 50 117 0.0 1.7 0.00 0.00 0.00 41 1022.8
20211017091900 50 117 0.9 1.7 0.00 0.00 0.00 42 1023.0
20211017091359 50 117 0.0 2.6 0.00 0.00 0.00 42 1023.0
20211017090858 50 117 1.7 2.6 0.00 0.00 0.00 41 1023.1
20211017090359 50 104 1.7 2.6 0.00 0.00 0.00 41 1023.0
20211017085858 50 110 1.7 2.6 0.00 0.00 0.00 41 1023.1
20211017085359 50 110 1.7 2.6 0.00 0.00 0.00 41 1023.0
20211017084900 49 109 1.7 2.6 0.00 0.00 0.00 42 1023.1
20211017084359 49 103 2.6 2.6 0.00 0.00 0.00 42 1023.1
20211017083859 49 104 1.7 2.6 0.00 0.00 0.00 43 1023.2
20211017083359 49 104 1.7 2.6 0.00 0.00 0.00 43 1023.2
20211017082900 49 104 0.9 1.7 0.00 0.00 0.00 43 1023.2
20211017082358 50 104 1.7 2.6 0.00 0.00 0.00 43 1023.2
20211017081859 50 104 0.0 2.6 0.00 0.00 0.00 43 1023.2
20211017081358 50 93 1.7 2.6 0.00 0.00 0.00 43 1023.2
20211017080858 50 90 0.0 2.6 0.00 0.00 0.00 43 1023.4
20211017080358 50 90 1.7 2.6 0.00 0.00 0.00 43 1023.4
20211017075858 50 85 1.7 2.6 0.00 0.00 0.00 44 1023.4
20211017075356 49 86 1.7 3.5 0.00 0.00 0.00 45 1023.5
20211017074855 49 86 1.7 3.5 0.00 0.00 0.00 45 1023.5
20211017074356 49 92 1.7 2.6 0.00 0.00 0.00 45 1023.5
20211017073857 49 107 1.7 3.5 0.00 0.00 0.00 45 1023.7
20211017073356 49 56 0.9 3.5 0.00 0.00 0.00 46 1023.7
20211017072856 49 56 2.6 3.5 0.00 0.00 0.00 46 1023.5
20211017072357 49 83 1.7 2.6 0.00 0.00 0.00 46 1023.5
20211017071856 49 41 0.0 0.0 0.00 0.00 0.00 45 1023.8
20211017071354 49 41 0.0 0.0 0.00 0.00 0.00 45 1023.7
20211017070854 50 41 0.0 0.0 0.00 0.00 0.00 45 1023.8
20211017070355 50 30 0.0 0.0 0.00 0.00 0.00 45 1023.8
20211017065854 50 30 0.0 3.5 0.00 0.00 0.00 45 1023.9
20211017065354 50 30 1.7 3.5 0.00 0.00 0.00 45 1023.8
20211017064853 49 86 2.6 3.5 0.00 0.00 0.00 46 1023.9
20211017064352 49 86 2.6 3.5 0.00 0.00 0.00 46 1024.0
20211017063852 48 79 0.9 2.6 0.00 0.00 0.00 47 1024.1
20211017063353 49 92 0.0 1.7 0.00 0.00 0.00 45 1024.1
20211017062853 49 92 0.0 2.6 0.00 0.00 0.00 45 1024.1
20211017062351 49 3 0.9 2.6 0.00 0.00 0.00 45 1024.2
20211017061852 49 3 0.0 1.7 0.00 0.00 0.00 44 1024.4
20211017061351 49 3 0.0 2.6 0.00 0.00 0.00 44 1024.5
20211017060851 49 3 0.9 2.6 0.00 0.00 0.00 44 1024.4
20211017060351 49 42 0.9 2.6 0.00 0.00 0.00 43 1024.4
20211017055850 49 44 1.7 3.5 0.00 0.00 0.00 44 1024.4
20211017055352 49 37 1.7 3.5 0.00 0.00 0.00 44 1024.5
20211017054850 49 85 1.7 2.6 0.00 0.00 0.00 45 1024.5
20211017054350 49 93 1.7 2.6 0.00 0.00 0.00 44 1024.7
20211017053851 49 107 1.7 2.6 0.00 0.00 0.00 44 1024.6
20211017053351 49 109 1.7 2.6 0.00 0.00 0.00 43 1024.7
20211017052851 49 55 0.0 0.0 0.00 0.00 0.00 43 1024.6
20211017052351 49 54 0.0 0.0 0.00 0.00 0.00 43 1024.6
20211017051851 50 54 0.0 0.0 0.00 0.00 0.00 42 1024.7
20211017051351 50 54 0.0 0.0 0.00 0.00 0.00 42 1024.8
20211017050849 50 54 0.0 1.7 0.00 0.00 0.00 41 1024.8
20211017050351 51 54 0.9 1.7 0.00 0.00 0.00 41 1024.7
20211017045850 51 54 0.9 1.7 0.00 0.00 0.00 41 1024.6
20211017045348 51 54 0.0 1.7 0.00 0.00 0.00 41 1024.6
20211017044848 51 54 0.0 1.7 0.00 0.00 0.00 40 1024.8
20211017044350 0 0.0 0.0 0.00 0.00 0.00 1024.8
20211017043848 50 63 0.9 1.7 0.00 0.00 0.00 42 1024.8
20211017043348 50 63 0.9 1.7 0.00 0.00 0.00 42 1024.8
20211017042848 50 63 0.9 1.7 0.00 0.00 0.00 42 1024.8
20211017042347 50 97 1.7 2.6 0.00 0.00 0.00 44 1024.9
20211017041846 50 97 1.7 2.6 0.00 0.00 0.00 44 1024.9
20211017041346 49 73 0.0 0.0 0.00 0.00 0.00 44 1025.1
20211017040846 49 73 0.0 0.0 0.00 0.00 0.00 45 1025.1
20211017040346 49 73 0.0 0.0 0.00 0.00 0.00 45 1025.3
20211017035846 49 73 0.0 0.0 0.00 0.00 0.00 44 1025.2
20211017035344 49 73 0.0 0.0 0.00 0.00 0.00 43 1025.3
20211017034845 48 73 0.0 0.0 0.00 0.00 0.00 45 1025.2
20211017034346 0 73 0.9 1.7 0.00 0.00 0.00 1025.3
20211017033844 48 73 0.9 1.7 0.00 0.00 0.00 47 1025.3
20211017033344 48 73 0.9 2.6 0.00 0.00 0.00 47 1025.2
20211017032842 48 73 0.9 2.6 0.00 0.00 0.00 48 1025.2
20211017032343 49 73 1.7 2.6 0.00 0.00 0.00 47 1025.2
20211017031843 49 73 1.7 2.6 0.00 0.00 0.00 47 1025.3
20211017031344 49 73 1.7 2.6 0.00 0.00 0.00 45 1025.3
20211017030843 49 73 1.7 1.7 0.00 0.00 0.00 45 1025.2
20211017030342 49 73 0.0 1.7 0.00 0.00 0.00 45 1025.2
20211017025843 49 73 0.0 1.7 0.00 0.00 0.00 45 1025.2
20211017025342 49 73 0.0 0.0 0.00 0.00 0.00 46 1025.3
20211017024842 49 73 0.0 0.0 0.00 0.00 0.00 46 1025.4
20211017024343 49 73 0.0 0.0 0.00 0.00 0.00 45 1025.4
20211017023842 49 73 0.0 0.0 0.00 0.00 0.00 46 1025.5
20211017023342 49 73 0.0 0.0 0.00 0.00 0.00 46 1025.5
20211017022842 49 73 0.0 0.0 0.00 0.00 0.00 46 1025.5
20211017022342 49 73 0.0 0.0 0.00 0.00 0.00 46 1025.6
20211017021843 49 73 0.0 0.0 0.00 0.00 0.00 46 1025.6
20211017021341 49 73 0.0 0.0 0.00 0.00 0.00 47 1025.8
20211017020843 49 73 0.0 0.0 0.00 0.00 0.00 48 1025.8
20211017020341 49 73 0.0 0.0 0.00 0.00 0.00 47 1025.9
20211017015841 49 73 0.0 0.0 0.00 0.00 0.00 48 1025.9
20211017015342 49 73 0.0 0.0 0.00 0.00 0.00 47 1025.8
20211017014841 49 73 0.0 0.0 0.00 0.00 0.00 47 1025.9
20211017014343 50 73 0.0 0.9 0.00 0.00 0.00 47 1025.9
20211017013842 50 73 0.0 0.9 0.00 0.00 0.00 47 1026.0
20211017013342 50 73 0.0 0.0 0.00 0.00 0.00 46 1026.0
20211017012841 50 73 0.0 1.7 0.00 0.00 0.00 46 1026.1
20211017012340 50 73 0.0 1.7 0.00 0.00 0.00 46 1026.1
20211017011841 51 73 1.7 2.6 0.00 0.00 0.00 45 1026.0
20211017011338 51 73 0.9 2.6 0.00 0.00 0.00 46 1026.1
20211017010838 51 73 1.7 3.5 0.00 0.00 0.00 45 1026.0
20211017010338 51 75 2.6 3.5 0.00 0.00 0.00 45 1026.2
20211017005837 51 73 1.7 2.6 0.00 0.00 0.00 45 1026.2
20211017005339 52 48 1.7 2.6 0.00 0.00 0.00 44 1026.3
20211017004840 52 348 0.0 0.0 0.00 0.00 0.00 43 1026.2
20211017004337 52 341 0.0 0.0 0.00 0.00 0.00 43 1026.3
20211017003836 53 341 0.0 0.0 0.00 0.00 0.00 42 1026.2
20211017003337 53 324 0.0 0.0 0.00 0.00 0.00 41 1026.3
20211017002837 53 324 0.0 1.7 0.00 0.00 0.00 41 1026.2
20211017002336 54 324 0.9 1.7 0.00 0.00 0.00 40 1026.3
20211017001837 54 324 0.0 3.5 0.00 0.00 0.00 40 1026.5
20211017001336 54 324 0.0 3.5 0.00 0.00 0.00 40 1026.3
20211017000837 54 285 0.9 2.6 0.00 0.00 0.00 40 1026.6
20211017000339 54 282 0.0 2.6 0.00 0.00 0.00 40 1026.5
20211016235837 54 285 0.0 3.5 0.00 0.00 0.00 39 1026.5
20211016235337 54 265 1.7 3.5 0.00 0.00 0.00 39 1026.6
20211016234837 55 306 0.9 4.3 0.00 0.00 0.00 39 1026.6
20211016234335 55 288 1.7 4.3 0.00 0.00 0.00 37 1026.6
20211016233833 55 334 0.0 3.5 0.00 0.00 0.00 38 1026.7
20211016233336 55 341 2.6 4.3 0.00 0.00 0.00 38 1026.8
20211016232836 55 316 1.7 4.3 0.00 0.00 0.00 39 1026.8
20211016232337 55 258 0.9 3.5 0.00 0.00 0.00 38 1026.8
20211016231836 55 310 1.7 3.5 0.00 0.00 0.00 37 1026.7
20211016231334 56 306 0.9 3.5 0.00 0.00 0.00 38 1026.8
20211016230836 56 307 0.9 3.5 0.00 0.00 0.00 37 1026.8
20211016230334 56 282 0.9 3.5 0.00 0.00 0.00 38 1026.9
20211016225837 56 307 0.9 2.6 0.00 0.00 0.00 37 1026.9
20211016225335 56 320 0.9 2.6 0.00 0.00 0.00 38 1027.0
20211016224836 56 264 0.9 2.6 0.00 0.00 0.00 38 1027.0
20211016224334 56 307 1.7 3.5 0.00 0.00 0.00 38 1027.1
20211016223834 56 307 1.7 3.5 0.00 0.00 0.00 38 1027.1
20211016223334 55 298 1.7 2.6 0.00 0.00 0.00 39 1027.3
20211016222832 55 279 1.7 5.2 0.00 0.00 0.00 39 1027.1
20211016222332 55 279 2.6 5.2 0.00 0.00 0.00 38 1027.3
20211016221834 55 329 2.6 3.5 0.00 0.00 0.00 38 1027.1
20211016221335 55 4 1.7 3.5 0.00 0.00 0.00 38 1027.1
20211016220832 55 307 1.7 3.5 0.00 0.00 0.00 38 1027.4
20211016220332 55 283 2.6 5.2 0.00 0.00 0.00 37 1027.4
20211016215832 56 307 1.7 5.2 0.00 0.00 0.00 37 1027.5
20211016215333 56 272 1.7 4.3 0.00 0.00 0.00 37 1027.5
20211016214832 56 326 1.7 4.3 0.00 0.00 0.00 37 1027.6
20211016214331 56 317 2.6 4.3 0.00 0.00 0.00 36 1027.6
20211016213831 56 316 1.7 4.3 0.00 0.00 0.00 37 1027.7
20211016213331 56 213 1.7 5.2 0.00 0.00 0.00 37 1027.7
20211016212832 56 276 1.7 5.2 0.00 0.00 0.00 37 1027.8
20211016212331 56 316 2.6 4.3 0.00 0.00 0.00 36 1027.8
20211016211831 56 289 0.0 4.3 0.00 0.00 0.00 35 1027.8
20211016211329 56 271 1.7 2.6 0.00 0.00 0.00 38 1027.8
20211016210830 55 6 1.7 5.2 0.00 0.00 0.00 37 1028.0
20211016210328 55 298 1.7 5.2 0.00 0.00 0.00 38 1028.1
20211016205830 55 343 1.7 4.3 0.00 0.00 0.00 39 1028.1
20211016205329 55 264 0.9 4.3 0.00 0.00 0.00 38 1028.2
20211016204830 55 312 1.7 4.3 0.00 0.00 0.00 38 1028.2
20211016204329 55 279 1.7 4.3 0.00 0.00 0.00 39 1028.4
20211016203829 55 271 1.7 4.3 0.00 0.00 0.00 38 1028.3
20211016203327 54 312 2.6 4.3 0.00 0.00 0.00 38 1028.5
20211016202829 54 299 1.7 4.3 0.00 0.00 0.00 39 1028.5
20211016202329 54 329 1.7 4.3 0.00 0.00 0.00 38 1028.5
20211016201830 54 348 1.7 3.5 0.00 0.00 0.00 39 1028.5
20211016201327 53 28 1.7 2.6 0.00 0.00 0.00 38 1028.8
20211016200826 53 314 1.7 2.6 0.00 0.00 0.00 40 1028.9
20211016200327 52 293 0.9 2.6 0.00 0.00 0.00 40 1029.0
20211016195828 52 330 0.9 2.6 0.00 0.00 0.00 40 1028.9
20211016195327 51 321 0.9 3.5 0.00 0.00 0.00 41 1029.1
20211016194826 51 228 0.9 3.5 0.00 0.00 0.00 41 1029.2
20211016194326 51 313 0.9 2.6 0.00 0.00 0.00 43 1029.4
20211016193825 50 244 0.9 4.3 0.00 0.00 0.00 41 1029.5
20211016193328 50 300 1.7 4.3 0.00 0.00 0.00 41 1029.6
20211016192827 50 279 0.9 3.5 0.00 0.00 0.00 41 1029.7
20211016192325 49 307 0.9 2.6 0.00 0.00 0.00 42 1029.7
20211016191827 49 259 0.9 2.6 0.00 0.00 0.00 42 1029.7
20211016191327 49 295 0.9 2.6 0.00 0.00 0.00 44 1029.8
20211016190825 49 282 0.0 1.7 0.00 0.00 0.00 45 1029.9
20211016190324 49 282 0.0 1.7 0.00 0.00 0.00 45 1030.1
20211016185826 49 282 0.0 0.0 0.00 0.00 0.00 46 1030.2
20211016185325 48 282 0.0 0.0 0.00 0.00 0.00 44 1030.3
20211016184826 48 283 0.0 1.7 0.00 0.00 0.00 46 1030.3
20211016184325 47 283 0.9 3.5 0.00 0.00 0.00 47 1030.3
20211016183824 47 3 0.0 3.5 0.00 0.00 0.00 48 1030.4
20211016183324 47 261 0.0 1.7 0.00 0.00 0.00 48 1030.5
20211016182824 46 262 0.0 1.7 0.00 0.00 0.00 48 1030.5
20211016182325 46 262 0.9 2.6 0.00 0.00 0.00 48 1030.5
20211016181825 46 264 0.9 2.6 0.00 0.00 0.00 48 1030.5
20211016181324 45 266 0.0 2.6 0.00 0.00 0.00 50 1030.6
20211016180825 45 265 0.9 2.6 0.00 0.00 0.00 50 1030.6
20211016180324 45 296 0.9 2.6 0.00 0.00 0.00 52 1030.5
20211016175824 44 178 0.0 1.7 0.00 0.00 0.00 52 1030.5
20211016175324 44 178 0.9 1.7 0.00 0.00 0.00 52 1030.6
20211016174825 44 178 0.0 0.9 0.00 0.00 0.00 53 1030.5
20211016174324 44 175 0.0 0.0 0.00 0.00 0.00 53 1030.5
20211016173822 43 175 0.0 0.0 0.00 0.00 0.00 53 1030.5
20211016173325 43 175 0.0 0.0 0.00 0.00 0.00 54 1030.5
20211016172825 43 175 0.0 0.0 0.00 0.00 0.00 54 1030.5
20211016172323 42 118 0.0 0.0 0.00 0.00 0.00 54 1030.5
20211016171823 42 118 0.0 0.0 0.00 0.00 0.00 54 1030.5
20211016171323 42 118 0.0 0.0 0.00 0.00 0.00 55 1030.6
20211016170823 41 118 0.0 0.0 0.00 0.00 0.00 56 1030.6
20211016170323 41 118 0.0 0.0 0.00 0.00 0.00 56 1030.8